Weather in Malodory

Russia / Arkhangel'skaya Oblast'     60°57′46″N   43°20′12″E
temp.,
°C
wind,
m/s
gust,
m/s
humid.,
%
clouds,
%
prec.,
mm/h
press.,
hPa
HPBL,
m
18 august, thu
thu1800:00+16sse22803 0.0 102418
03:00+15se11865 0.0 102511
06:00+17sse12785 0.0 102566
09:00+23sse23515 0.0 1025489
12:00+27s34380 0.0 10252254
15:00+27s34365 0.0 10252332
18:00+25s22527 0.0 102560
21:00+18se227321 0.0 102736
19 august, fri
fri1900:00+17se237999 0.0 102848
03:00+18s247697 0.0 1029111
06:00+17s26827 0.0 1030185
09:00+22s35555 0.0 1031575
12:00+25s34424 0.0 10311310
15:00+26s34353 0.0 10311464
18:00+23s25472 0.0 1030227
21:00+16s22625 0.0 103139
20 august, sat
sat2000:00+14s23697 0.0 103258
03:00+12s23745 0.0 103343
06:00+13s24712 0.0 103398
09:00+20s23481 0.0 1033470
12:00+24s34350 0.0 10321177
15:00+25s33300 0.0 10311375
18:00+22s23480 0.0 103064
21:00+15sse22630 0.0 103120
21 august, sun
sun2100:00+14sse2270100 0.0 103124
03:00+13sse2273100 0.0 103119
06:00+14sse2271100 0.0 103163
09:00+20sse2350100 0.0 1031345
12:00+24sse3436100 0.0 10301051
15:00+25s343044 0.0 10281442
18:00+22sse24495 0.0 102897
21:00+16sse22645 0.0 102816
22 august, mon
mon2200:00+14sse22735 0.0 102833
03:00+13sse238180 0.0 102947
06:00+14sse26815 0.0 1029138
09:00+22s35545 0.0 1029468
12:00+26s35416 0.0 10281575
15:00+27ssw353745 0.0 10281699
18:00+24s255511 0.0 1027144
21:00+19sse237524 0.0 102857